Time,TemperatureF,DewpointF,PressureIn,WindDirection,WindDirectionDegrees,WindSpeedMPH,WindSpeedGustMPH,Humidity,HourlyPrecipIn,Conditions,Clouds,dailyrainin,SolarRadiationWatts/m^2,SoftwareType,DateUTC
2013-04-08 00:02:00,49.0,28.0,-100.00,WSW,239,0.0,0.0,44,0.00,,,0.00,0.000000,,2013-04-08 07:02:00,
2013-04-08 00:42:00,45.0,26.0,-100.00,ESE,112,0.0,0.0,47,0.00,,,0.00,0.000000,,2013-04-08 07:42:00,
2013-04-08 00:52:00,45.0,26.0,-100.00,ESE,112,0.0,0.0,47,0.00,,,0.00,0.000000,,2013-04-08 07:52:00,
2013-04-08 01:02:00,45.0,26.0,-100.00,ESE,112,0.0,0.0,47,0.00,,,0.00,0.000000,,2013-04-08 08:02:00,
2013-04-08 01:33:00,45.0,28.0,-100.00,SSE,158,0.0,0.0,52,0.00,,,0.00,0.000000,,2013-04-08 08:33:00,
2013-04-08 01:43:00,45.0,28.0,-100.00,SSE,158,0.0,0.0,52,0.00,,,0.00,0.000000,,2013-04-08 08:43:00,
2013-04-08 01:52:00,45.0,28.0,-100.00,SSE,158,0.0,0.0,52,0.00,,,0.00,0.000000,,2013-04-08 08:52:00,
2013-04-08 02:01:00,45.0,28.0,-100.00,SSE,158,0.0,0.0,52,0.00,,,0.00,0.000000,,2013-04-08 09:01:00,
2013-04-08 02:03:00,44.0,29.0,-100.00,NNE,30,0.0,0.0,55,0.00,,,0.00,0.000000,,2013-04-08 09:03:00,
2013-04-08 02:33:00,44.0,29.0,-100.00,NNE,30,0.0,0.0,55,0.00,,,0.00,0.000000,,2013-04-08 09:33:00,
2013-04-08 02:43:00,44.0,29.0,-100.00,NNE,30,0.0,0.0,55,0.00,,,0.00,0.000000,,2013-04-08 09:43:00,
2013-04-08 02:53:00,44.0,29.0,-100.00,NNE,30,0.0,0.0,55,0.00,,,0.00,0.000000,,2013-04-08 09:53:00,
2013-04-08 03:23:00,54.0,30.0,-100.00,NE,48,0.0,0.0,39,0.00,,,0.00,0.000000,,2013-04-08 10:23:00,
2013-04-08 03:33:00,54.0,30.0,-100.00,NE,48,0.0,0.0,39,0.00,,,0.00,0.000000,,2013-04-08 10:33:00,
2013-04-08 03:43:00,54.0,30.0,-100.00,NE,48,0.0,0.0,39,0.00,,,0.00,0.000000,,2013-04-08 10:43:00,
2013-04-08 03:53:00,54.0,30.0,-100.00,NE,48,0.0,0.0,39,0.00,,,0.00,0.000000,,2013-04-08 10:53:00,
2013-04-08 04:02:00,54.0,30.0,-100.00,NE,48,0.0,0.0,39,0.00,,,0.00,0.000000,,2013-04-08 11:02:00,
2013-04-08 04:23:00,54.0,30.0,-100.00,SSE,160,0.0,0.0,40,0.00,,,0.00,0.000000,,2013-04-08 11:23:00,
2013-04-08 04:32:00,54.0,30.0,-100.00,SSE,160,0.0,0.0,40,0.00,,,0.00,0.000000,,2013-04-08 11:32:00,
2013-04-08 04:43:00,54.0,30.0,-100.00,SSE,160,0.0,0.0,40,0.00,,,0.00,0.000000,,2013-04-08 11:43:00,
2013-04-08 04:52:00,54.0,30.0,-100.00,SSE,160,0.0,0.0,40,0.00,,,0.00,0.000000,,2013-04-08 11:52:00,
2013-04-08 05:01:00,54.0,30.0,-100.00,SSE,160,0.0,0.0,40,0.00,,,0.00,0.000000,,2013-04-08 12:01:00,
2013-04-08 05:23:00,55.0,33.0,-100.00,NNE,18,0.0,0.0,43,0.00,,,0.00,0.000000,,2013-04-08 12:23:00,
2013-04-08 05:33:00,55.0,33.0,-100.00,NNE,18,0.0,0.0,43,0.00,,,0.00,0.000000,,2013-04-08 12:33:00,
2013-04-08 05:42:00,55.0,33.0,-100.00,NNE,18,0.0,0.0,43,0.00,,,0.00,0.000000,,2013-04-08 12:42:00,
2013-04-08 05:52:00,55.0,33.0,-100.00,NNE,18,0.0,0.0,43,0.00,,,0.00,0.000000,,2013-04-08 12:52:00,
2013-04-08 06:02:00,55.0,33.0,-100.00,NNE,18,0.0,0.0,43,0.00,,,0.00,0.000000,,2013-04-08 13:02:00,
2013-04-08 06:32:00,54.0,34.0,-100.00,NNE,19,0.0,0.0,46,0.00,,,0.00,0.000000,,2013-04-08 13:32:00,
2013-04-08 06:43:00,54.0,34.0,-100.00,NNE,19,0.0,0.0,46,0.00,,,0.00,0.000000,,2013-04-08 13:43:00,
2013-04-08 06:52:00,54.0,34.0,-100.00,NNE,19,0.0,0.0,46,0.00,,,0.00,0.000000,,2013-04-08 13:52:00,
2013-04-08 07:02:00,54.0,34.0,-100.00,NNE,19,0.0,0.0,46,0.00,,,0.00,0.000000,,2013-04-08 14:02:00,
2013-04-08 07:33:00,54.0,31.0,-100.00,South,187,0.0,0.0,42,0.00,,,0.00,22.000000,,2013-04-08 14:33:00,
2013-04-08 07:43:00,54.0,31.0,-100.00,South,187,0.0,0.0,42,0.00,,,0.00,22.000000,,2013-04-08 14:43:00,
2013-04-08 07:52:00,54.0,31.0,-100.00,South,187,0.0,0.0,42,0.00,,,0.00,22.000000,,2013-04-08 14:52:00,
2013-04-08 08:02:00,54.0,31.0,-100.00,South,187,0.0,0.0,42,0.00,,,0.00,22.000000,,2013-04-08 15:02:00,
2013-04-08 08:35:00,53.0,30.0,-100.00,ENE,65,0.0,0.0,41,0.00,,,-99.99,40.000000,,2013-04-08 15:35:00,
2013-04-08 08:43:00,53.0,30.0,-100.00,ENE,65,0.0,0.0,41,0.00,,,-99.99,40.000000,,2013-04-08 15:43:00,
2013-04-08 08:53:00,53.0,30.0,-100.00,ENE,65,0.0,0.0,41,0.00,,,-99.99,40.000000,,2013-04-08 15:53:00,
2013-04-08 09:02:00,53.0,30.0,-100.00,ENE,65,0.0,0.0,41,0.00,,,-99.99,40.000000,,2013-04-08 16:02:00,
2013-04-08 09:33:00,55.0,32.0,-100.00,NNE,21,0.0,0.0,41,0.00,,,0.00,83.000000,,2013-04-08 16:33:00,
2013-04-08 09:42:00,55.0,32.0,-100.00,NNE,21,0.0,0.0,41,0.00,,,0.00,83.000000,,2013-04-08 16:42:00,
2013-04-08 09:53:00,55.0,32.0,-100.00,NNE,21,0.0,0.0,41,0.00,,,0.00,83.000000,,2013-04-08 16:53:00,
2013-04-08 10:02:00,55.0,32.0,-100.00,NNE,21,0.0,0.0,41,0.00,,,0.00,83.000000,,2013-04-08 17:02:00,
2013-04-08 10:32:00,56.0,34.0,-100.00,NNE,21,0.0,0.0,44,0.00,,,0.00,76.000000,,2013-04-08 17:32:00,
2013-04-08 10:44:00,56.0,34.0,-100.00,NNE,21,0.0,0.0,44,0.00,,,0.00,76.000000,,2013-04-08 17:44:00,
2013-04-08 10:52:00,56.0,34.0,-100.00,NNE,21,0.0,0.0,44,0.00,,,0.00,76.000000,,2013-04-08 17:52:00,
2013-04-08 11:02:00,56.0,34.0,-100.00,NNE,21,0.0,0.0,44,0.00,,,0.00,76.000000,,2013-04-08 18:02:00,
2013-04-08 11:32:00,57.0,33.0,-100.00,NNE,21,0.0,0.0,40,0.00,,,0.00,382.000000,,2013-04-08 18:32:00,
2013-04-08 11:42:00,57.0,33.0,-100.00,NNE,21,0.0,0.0,40,0.00,,,0.00,382.000000,,2013-04-08 18:42:00,
2013-04-08 11:52:00,57.0,33.0,-100.00,NNE,21,0.0,0.0,40,0.00,,,0.00,382.000000,,2013-04-08 18:52:00,
2013-04-08 12:02:00,57.0,33.0,-100.00,NNE,21,0.0,0.0,40,0.00,,,0.00,382.000000,,2013-04-08 19:02:00,
2013-04-08 12:33:00,54.0,30.0,-100.00,NNE,28,0.0,0.0,39,0.00,,,0.00,206.000000,,2013-04-08 19:33:00,
2013-04-08 12:43:00,54.0,30.0,-100.00,NNE,28,0.0,0.0,39,0.00,,,0.00,206.000000,,2013-04-08 19:43:00,
2013-04-08 12:52:00,54.0,30.0,-100.00,NNE,28,0.0,0.0,39,0.00,,,0.00,206.000000,,2013-04-08 19:52:00,
2013-04-08 13:02:00,54.0,30.0,-100.00,NNE,28,0.0,0.0,39,0.00,,,0.00,206.000000,,2013-04-08 20:02:00,
2013-04-08 13:33:00,51.0,34.0,-100.00,NNE,28,0.0,0.0,51,0.00,,,0.00,125.000000,,2013-04-08 20:33:00,
2013-04-08 13:43:00,51.0,34.0,-100.00,NNE,28,0.0,0.0,51,0.00,,,0.00,125.000000,,2013-04-08 20:43:00,
2013-04-08 13:52:00,51.0,34.0,-100.00,NNE,28,0.0,0.0,51,0.00,,,0.00,125.000000,,2013-04-08 20:52:00,
2013-04-08 14:01:00,51.0,34.0,-100.00,NNE,28,0.0,0.0,51,0.00,,,0.00,125.000000,,2013-04-08 21:01:00,
2013-04-08 14:22:00,51.0,29.0,-100.00,East,99,0.0,0.0,43,0.00,,,0.00,131.000000,,2013-04-08 21:22:00,
2013-04-08 14:33:00,51.0,29.0,-100.00,East,99,0.0,0.0,43,0.00,,,0.00,131.000000,,2013-04-08 21:33:00,
2013-04-08 14:43:00,51.0,29.0,-100.00,East,99,0.0,0.0,43,0.00,,,0.00,131.000000,,2013-04-08 21:43:00,
2013-04-08 14:53:00,51.0,29.0,-100.00,East,99,0.0,0.0,43,0.00,,,0.00,131.000000,,2013-04-08 21:53:00,
2013-04-08 15:02:00,51.0,29.0,-100.00,East,99,0.0,0.0,43,0.00,,,0.00,131.000000,,2013-04-08 22:02:00,
2013-04-08 15:23:00,48.0,30.0,-100.00,NNE,30,0.0,0.0,50,0.00,,,0.00,93.000000,,2013-04-08 22:23:00,
2013-04-08 15:32:00,48.0,30.0,-100.00,NNE,30,0.0,0.0,50,0.00,,,0.00,93.000000,,2013-04-08 22:32:00,
2013-04-08 15:43:00,48.0,30.0,-100.00,NNE,30,0.0,0.0,50,0.00,,,0.00,93.000000,,2013-04-08 22:43:00,
2013-04-08 15:53:00,48.0,30.0,-100.00,NNE,30,0.0,0.0,50,0.00,,,0.00,93.000000,,2013-04-08 22:53:00,
2013-04-08 16:02:00,48.0,30.0,-100.00,NNE,30,0.0,0.0,50,0.00,,,0.00,93.000000,,2013-04-08 23:02:00,
2013-04-08 16:32:00,47.0,27.0,-100.00,NNE,32,0.0,0.0,46,0.00,,,0.00,58.000000,,2013-04-08 23:32:00,
2013-04-08 16:43:00,47.0,27.0,-100.00,NNE,32,0.0,0.0,46,0.00,,,0.00,58.000000,,2013-04-08 23:43:00,
2013-04-08 16:52:00,47.0,27.0,-100.00,NNE,32,0.0,0.0,46,0.00,,,0.00,58.000000,,2013-04-08 23:52:00,
2013-04-08 17:02:00,47.0,27.0,-100.00,NNE,32,0.0,0.0,46,0.00,,,0.00,58.000000,,2013-04-09 00:02:00,
2013-04-08 17:22:00,47.0,24.0,-100.00,NNE,20,0.0,0.0,40,0.00,,,0.00,21.000000,,2013-04-09 00:22:00,
2013-04-08 17:32:00,47.0,24.0,-100.00,NNE,20,0.0,0.0,40,0.00,,,0.00,21.000000,,2013-04-09 00:32:00,
2013-04-08 17:42:00,47.0,24.0,-100.00,NNE,20,0.0,0.0,40,0.00,,,0.00,21.000000,,2013-04-09 00:42:00,
2013-04-08 17:52:00,47.0,24.0,-100.00,NNE,20,0.0,0.0,40,0.00,,,0.00,21.000000,,2013-04-09 00:52:00,
2013-04-08 18:02:00,47.0,24.0,-100.00,NNE,20,0.0,0.0,40,0.00,,,0.00,21.000000,,2013-04-09 01:02:00,
2013-04-08 18:22:00,48.0,22.0,-100.00,WNW,300,0.0,0.0,35,0.00,,,0.00,12.000000,,2013-04-09 01:22:00,
2013-04-08 18:34:00,48.0,22.0,-100.00,WNW,300,0.0,0.0,35,0.00,,,0.00,12.000000,,2013-04-09 01:34:00,
2013-04-08 18:42:00,48.0,22.0,-100.00,WNW,300,0.0,0.0,35,0.00,,,0.00,12.000000,,2013-04-09 01:42:00,
2013-04-08 18:52:00,48.0,22.0,-100.00,WNW,300,0.0,0.0,35,0.00,,,0.00,12.000000,,2013-04-09 01:52:00,
2013-04-08 19:02:00,48.0,22.0,-100.00,WNW,300,0.0,0.0,35,0.00,,,0.00,12.000000,,2013-04-09 02:02:00,
2013-04-08 19:22:00,46.0,21.0,-100.00,NNE,21,0.0,0.0,36,0.00,,,0.00,2.000000,,2013-04-09 02:22:00,
2013-04-08 19:33:00,46.0,21.0,-100.00,NNE,21,0.0,0.0,36,0.00,,,0.00,2.000000,,2013-04-09 02:33:00,
2013-04-08 19:44:00,46.0,21.0,-100.00,NNE,21,0.0,0.0,36,0.00,,,0.00,2.000000,,2013-04-09 02:44:00,
2013-04-08 19:52:00,46.0,21.0,-100.00,NNE,21,0.0,0.0,36,0.00,,,0.00,2.000000,,2013-04-09 02:52:00,
2013-04-08 20:02:00,46.0,21.0,-100.00,NNE,21,0.0,0.0,36,0.00,,,0.00,2.000000,,2013-04-09 03:02:00,
2013-04-08 20:22:00,45.0,24.0,-100.00,NW,307,0.0,0.0,44,0.00,,,0.00,0.000000,,2013-04-09 03:22:00,
2013-04-08 20:33:00,45.0,24.0,-100.00,NW,307,0.0,0.0,44,0.00,,,0.00,0.000000,,2013-04-09 03:33:00,
2013-04-08 20:43:00,45.0,24.0,-100.00,NW,307,0.0,0.0,44,0.00,,,0.00,0.000000,,2013-04-09 03:43:00,
2013-04-08 20:53:00,45.0,24.0,-100.00,NW,307,0.0,0.0,44,0.00,,,0.00,0.000000,,2013-04-09 03:53:00,
2013-04-08 21:02:00,45.0,24.0,-100.00,NW,307,0.0,0.0,44,0.00,,,0.00,0.000000,,2013-04-09 04:02:00,
2013-04-08 21:23:00,45.0,24.0,-100.00,ENE,70,0.0,0.0,43,0.00,,,0.00,0.000000,,2013-04-09 04:23:00,
2013-04-08 21:33:00,45.0,24.0,-100.00,ENE,70,0.0,0.0,43,0.00,,,0.00,0.000000,,2013-04-09 04:33:00,
2013-04-08 21:43:00,45.0,24.0,-100.00,ENE,70,0.0,0.0,43,0.00,,,0.00,0.000000,,2013-04-09 04:43:00,
2013-04-08 21:53:00,45.0,24.0,-100.00,ENE,70,0.0,0.0,43,0.00,,,0.00,0.000000,,2013-04-09 04:53:00,
2013-04-08 22:02:00,45.0,24.0,-100.00,ENE,70,0.0,0.0,43,0.00,,,0.00,0.000000,,2013-04-09 05:02:00,
2013-04-08 22:22:00,45.0,24.0,-100.00,NNW,335,0.0,0.0,44,0.00,,,0.00,0.000000,,2013-04-09 05:22:00,
2013-04-08 22:32:00,45.0,24.0,-100.00,NNW,335,0.0,0.0,44,0.00,,,0.00,0.000000,,2013-04-09 05:32:00,
2013-04-08 22:43:00,45.0,24.0,-100.00,NNW,335,0.0,0.0,44,0.00,,,0.00,0.000000,,2013-04-09 05:43:00,
2013-04-08 22:52:00,45.0,24.0,-100.00,NNW,335,0.0,0.0,44,0.00,,,0.00,0.000000,,2013-04-09 05:52:00,
2013-04-08 23:02:00,45.0,24.0,-100.00,NNW,335,0.0,0.0,44,0.00,,,0.00,0.000000,,2013-04-09 06:02:00,
2013-04-08 23:22:00,42.0,24.0,-100.00,NNE,12,0.0,0.0,49,0.00,,,0.00,0.000000,,2013-04-09 06:22:00,
2013-04-08 23:32:00,42.0,24.0,-100.00,NNE,12,0.0,0.0,49,0.00,,,0.00,0.000000,,2013-04-09 06:32:00,
2013-04-08 23:42:00,42.0,24.0,-100.00,NNE,12,0.0,0.0,49,0.00,,,0.00,0.000000,,2013-04-09 06:42:00,
2013-04-08 23:52:00,42.0,24.0,-100.00,NNE,12,0.0,0.0,49,0.00,,,0.00,0.000000,,2013-04-09 06:52:00,